Big Rapids, MI

3:20 PM EDT on October 18, 2019 (GMT -0400)
Roben-Hood

Weather History for KRQB - August, 2019

Change the Weather History Date:

Sunday, August 4, 2019

  Actual Average Record
Temperature  
Mean Temperature 72 °F -  
Max Temperature 83 °F 80 °F 98 °F (1988)
Min Temperature 59 °F 54 °F 42 °F (1972)
Cooling Degree Days 7    
Growing Degree Days 22 (Base 50)    
Moisture  
Dew Point 62 °F    
Average Humidity 80    
Maximum Humidity 98    
Minimum Humidity 44    
Precipitation  
Precipitation 0.00 in - - ()
Sea Level Pressure  
Sea Level Pressure 30.04 in    
Wind  
Wind Speed 4 mph (NW)    
Max Wind Speed 12 mph    
Max Gust Speed 16 mph    
Visibility 8 miles    
Events Fog    
Averages and records for this station are not official NWS values.
T = Trace of Precipitation, MM = Missing Value Source: NWS Daily Summary

Daily Weather History Graph

Daily Weather History Graph

Search for Another Location

Airport or City:

Astronomy

Aug. 04, 2019 Rise Set
Actual Time 6:33 AM EDT 9:01 PM EDT
Civil Twilight 6:01 AM EDT 9:33 PM EDT
Nautical Twilight 5:21 AM EDT 10:14 PM EDT
Astronomical Twilight 4:35 AM EDT 10:59 PM EDT
Moon 10:45 AM EDT (8/4) 11:32 PM EDT (8/4)
Length of Visible Light 15h 32m
Length of Day
14h 27m
Waxing Crescent, 18% of the Moon is Illuminated
Aug 4
Waxing Crescent
Aug 7
First Quarter
Aug 15
Full
Aug 23
Last Quarter
Aug 30
New

Hourly Weather History & Observations

Time (EDT) Temp. Heat Index Dew Point Humidity Pressure Visibility Wind Dir Wind Speed Gust Speed Precip Events Conditions
12:15 AM 66.2 °F - 64.4 °F 94% 30.05 in 10.0 mi WNW 8.1 mph - N/A   Clear
12:20 AM 66.4 °F - 64.4 °F 93% 30.05 in 10.0 mi West 8.1 mph - N/A   Clear
12:38 AM 67.5 °F - 64.9 °F 92% 30.05 in 10.0 mi WNW 8.1 mph - N/A   Clear
12:56 AM 67.1 °F - 64.6 °F 92% 30.05 in 10.0 mi WNW 9.2 mph - N/A   Clear
1:15 AM 66.4 °F - 64.4 °F 93% 30.05 in 10.0 mi WNW 6.9 mph - N/A   Clear
1:16 AM 66.6 °F - 64.6 °F 93% 30.05 in 10.0 mi WNW 8.1 mph - N/A   Clear
1:35 AM 65.7 °F - 63.7 °F 93% 30.05 in 10.0 mi Calm Calm - N/A   Clear
1:59 AM 65.3 °F - 64.0 °F 96% 30.06 in 10.0 mi Calm Calm - N/A   Clear
2:17 AM 64.0 °F - 62.6 °F 95% 30.05 in 10.0 mi Calm Calm - N/A   Clear
2:35 AM 64.6 °F - 63.3 °F 96% 30.06 in 10.0 mi Calm Calm - N/A   Clear
2:36 AM 64.6 °F - 63.1 °F 95% 30.06 in 10.0 mi Calm Calm - N/A   Clear
2:55 AM 64.9 °F - 63.7 °F 96% 30.05 in 10.0 mi Calm Calm - N/A   Clear
3:15 AM 63.5 °F - 62.4 °F 96% 30.05 in 5.0 mi Calm Calm - N/A   Clear
3:20 AM 63.1 °F - 61.9 °F 96% 30.05 in 5.0 mi Calm Calm - N/A   Clear
3:38 AM 63.3 °F - 62.2 °F 96% 30.04 in 7.0 mi Calm Calm - N/A   Clear
3:55 AM 63.3 °F - 62.2 °F 96% 30.04 in 7.0 mi NNW 3.5 mph - N/A   Clear
4:15 AM 63.3 °F - 62.2 °F 96% 30.04 in 5.0 mi Calm Calm - N/A   Clear
4:16 AM 63.1 °F - 62.1 °F 96% 30.04 in 7.0 mi Calm Calm - N/A   Clear
4:35 AM 61.7 °F - 60.6 °F 96% 30.04 in 1.0 mi Calm Calm - N/A   Mostly Cloudy
4:40 AM 61.7 °F - 60.8 °F 97% 30.04 in 0.8 mi Calm Calm - N/A   Overcast
4:58 AM 61.5 °F - 60.6 °F 97% 30.04 in 0.8 mi Calm Calm - N/A   Overcast
5:16 AM 62.2 °F - 61.5 °F 97% 30.04 in 1.8 mi North 4.6 mph - N/A   Mostly Cloudy
5:35 AM 61.3 °F - 60.6 °F 97% 30.04 in 7.0 mi North 3.5 mph - N/A   Clear
5:36 AM 61.5 °F - 60.8 °F 97% 30.04 in 10.0 mi North 3.5 mph - N/A   Clear
5:55 AM 61.0 °F - 60.1 °F 97% 30.04 in 4.0 mi Calm Calm - N/A   Scattered Clouds
6:19 AM 61.0 °F - 60.3 °F 97% 30.05 in 4.0 mi Calm Calm - N/A   Overcast
6:37 AM 61.7 °F - 61.0 °F 97% 30.05 in 0.5 mi Calm Calm - N/A Fog Fog
6:55 AM 62.6 °F - 61.9 °F 97% 30.06 in 0.2 mi Calm Calm - N/A Fog Fog
6:56 AM 62.6 °F - 61.9 °F 97% 30.06 in 0.2 mi Calm Calm - N/A Fog Fog
7:15 AM 63.5 °F - 62.6 °F 97% 30.06 in 0.2 mi WNW 5.8 mph - N/A Fog Fog
7:39 AM 64.2 °F - 63.5 °F 98% 30.06 in 0.2 mi Calm Calm - N/A Fog Fog
7:57 AM 63.9 °F - 63.3 °F 98% 30.07 in 0.5 mi NNW 4.6 mph - N/A Fog Fog
8:15 AM 64.4 °F - 63.5 °F 97% 30.07 in 0.2 mi WNW 4.6 mph - N/A Fog Fog
8:16 AM 64.4 °F - 63.5 °F 97% 30.07 in 0.2 mi WNW 5.8 mph - N/A Fog Fog
8:35 AM 64.4 °F - 63.5 °F 97% 30.07 in 0.5 mi WNW 4.6 mph - N/A Fog Fog
8:58 AM 64.9 °F - 64.2 °F 98% 30.07 in 0.2 mi SW 4.6 mph - N/A Fog Fog
9:15 AM 65.3 °F - 64.4 °F 97% 30.07 in 0.5 mi SSW 4.6 mph - N/A Fog Fog
9:35 AM 65.3 °F - 64.6 °F 98% 30.08 in 0.8 mi SSW 4.6 mph - N/A   Overcast
9:36 AM 65.5 °F - 64.8 °F 98% 30.08 in 1.0 mi SSE 4.6 mph - N/A   Overcast
9:55 AM 66.2 °F - 65.5 °F 98% 30.08 in 2.0 mi East 3.5 mph - N/A   Overcast
9:56 AM 66.2 °F - 65.5 °F 98% 30.08 in 2.5 mi ENE 3.5 mph - N/A   Overcast
10:19 AM 66.2 °F - 65.5 °F 98% 30.08 in 3.0 mi South 5.8 mph - N/A   Overcast
10:37 AM 66.6 °F - 65.8 °F 98% 30.08 in 5.0 mi South 3.5 mph - N/A   Overcast
10:55 AM 67.1 °F - 66.2 °F 97% 30.08 in 7.0 mi SE 3.5 mph - N/A   Overcast
11:15 AM 67.5 °F - 66.6 °F 97% 30.08 in 10.0 mi SSE 4.6 mph - N/A   Overcast
11:16 AM 67.5 °F - 66.6 °F 97% 30.08 in 10.0 mi SSE 4.6 mph - N/A   Overcast
11:35 AM 68.2 °F - 67.1 °F 96% 30.08 in 10.0 mi South 5.8 mph - N/A   Overcast
11:58 AM 69.1 °F - 67.5 °F 95% 30.08 in 10.0 mi SSE 4.6 mph - N/A   Overcast
12:16 PM 70.2 °F - 67.5 °F 91% 30.08 in 10.0 mi ESE 3.5 mph - N/A   Overcast
12:35 PM 72.0 °F - 68.0 °F 87% 30.07 in 10.0 mi ESE 3.5 mph - N/A   Mostly Cloudy
12:55 PM 74.5 °F - 68.0 °F 80% 30.06 in 10.0 mi East 4.6 mph - N/A   Scattered Clouds
1:18 PM 75.6 °F - 66.0 °F 72% 30.06 in 10.0 mi Calm Calm - N/A   Clear
1:35 PM 77.4 °F - 66.2 °F 68% 30.05 in 10.0 mi East 4.6 mph - N/A   Clear
1:55 PM 78.4 °F - 66.4 °F 66% 30.05 in 10.0 mi SE 3.5 mph - N/A   Clear
1:56 PM 78.6 °F - 66.4 °F 66% 30.05 in 10.0 mi Calm Calm - N/A   Clear
2:15 PM 80.2 °F 82.2 °F 65.5 °F 61% 30.04 in 10.0 mi Calm Calm - N/A   Clear
2:38 PM 80.2 °F 81.8 °F 63.9 °F 57% 30.04 in 10.0 mi NE 4.6 mph - N/A   Scattered Clouds
2:56 PM 79.9 °F - 62.8 °F 56% 30.04 in 10.0 mi Calm Calm - N/A   Mostly Cloudy
3:15 PM 82.0 °F 83.3 °F 63.5 °F 53% 30.03 in 10.0 mi NW 3.5 mph - N/A   Scattered Clouds
3:35 PM 82.2 °F 83.7 °F 64.0 °F 54% 30.02 in 10.0 mi Calm Calm - N/A   Scattered Clouds
3:40 PM 82.0 °F 83.1 °F 62.8 °F 52% 30.02 in 10.0 mi Calm Calm - N/A   Scattered Clouds
3:57 PM 80.8 °F 82.4 °F 64.4 °F 57% 30.02 in 10.0 mi East 5.8 mph - N/A   Overcast
4:15 PM 80.4 °F 82.0 °F 64.0 °F 57% 30.01 in 10.0 mi ESE 3.5 mph - N/A   Mostly Cloudy
4:35 PM 83.1 °F 83.7 °F 61.3 °F 48% 30.01 in 10.0 mi NW 3.5 mph - N/A   Scattered Clouds
4:55 PM 83.3 °F 83.4 °F 59.7 °F 45% 30.01 in 10.0 mi NW 5.8 mph - N/A   Scattered Clouds
5:18 PM 83.1 °F 83.0 °F 58.8 °F 44% 30.01 in 10.0 mi NW 5.8 mph - N/A   Clear
5:36 PM 82.8 °F 83.0 °F 60.1 °F 46% 30.00 in 10.0 mi North 9.2 mph - N/A   Mostly Cloudy
5:55 PM 81.0 °F 81.8 °F 61.2 °F 51% 30.00 in 10.0 mi North 4.6 mph - N/A   Mostly Cloudy
5:56 PM 81.1 °F 82.0 °F 61.2 °F 51% 30.00 in 10.0 mi North 4.6 mph - N/A   Scattered Clouds
6:15 PM 81.7 °F 82.3 °F 60.6 °F 49% 30.00 in 10.0 mi NW 4.6 mph - N/A   Clear
6:38 PM 80.8 °F 81.3 °F 59.2 °F 48% 30.00 in 10.0 mi NNW 5.8 mph - N/A   Clear
6:55 PM 79.7 °F - 58.3 °F 48% 30.00 in 10.0 mi NW 8.1 mph - N/A   Clear
7:15 PM 78.8 °F - 57.6 °F 48% 30.00 in 10.0 mi NNW 4.6 mph 16.1 mph N/A   Clear
7:16 PM 78.8 °F - 57.7 °F 48% 30.00 in 10.0 mi NNW 4.6 mph 16.1 mph N/A   Clear
7:35 PM 78.4 °F - 57.4 °F 48% 30.01 in 10.0 mi NNW 4.6 mph - N/A   Clear
7:36 PM 78.4 °F - 57.6 °F 49% 30.01 in 10.0 mi NNW 4.6 mph - N/A   Clear
7:59 PM 77.2 °F - 56.7 °F 49% 30.02 in 10.0 mi NNW 5.8 mph - N/A   Clear
8:17 PM 76.1 °F - 57.7 °F 53% 30.02 in 10.0 mi NW 5.8 mph - N/A   Clear
8:35 PM 74.3 °F - 56.7 °F 54% 30.02 in 10.0 mi NW 5.8 mph - N/A   Clear
8:55 PM 72.5 °F - 56.8 °F 58% 30.02 in 10.0 mi WNW 5.8 mph - N/A   Clear
8:56 PM 72.5 °F - 56.8 °F 58% 30.01 in 10.0 mi WNW 3.5 mph - N/A   Clear
9:15 PM 71.2 °F - 56.8 °F 60% 30.01 in 10.0 mi WNW 10.4 mph - N/A   Clear
9:20 PM 70.5 °F - 56.7 °F 61% 30.01 in 10.0 mi West 11.5 mph - N/A   Clear
9:38 PM 68.9 °F - 56.7 °F 65% 30.01 in 10.0 mi NW 3.5 mph - N/A   Clear
9:55 PM 68.0 °F - 56.8 °F 67% 30.01 in 10.0 mi NNW 3.5 mph - N/A   Clear
10:15 PM 63.5 °F - 57.7 °F 81% 30.01 in 10.0 mi Calm Calm - N/A   Clear
10:35 PM 62.4 °F - 57.4 °F 84% 30.01 in 10.0 mi Calm Calm - N/A   Clear
10:36 PM 62.2 °F - 57.6 °F 85% 30.01 in 10.0 mi Calm Calm - N/A   Clear
10:59 PM 61.9 °F - 57.4 °F 85% 30.01 in 10.0 mi Calm Calm - N/A   Clear
11:17 PM 62.2 °F - 56.7 °F 82% 30.01 in 10.0 mi ENE 3.5 mph - N/A   Clear
11:35 PM 62.6 °F - 56.8 °F 81% 30.01 in 10.0 mi West 3.5 mph - N/A   Clear
11:55 PM 59.9 °F - 55.8 °F 86% 30.00 in 10.0 mi Calm Calm - N/A   Clear